When you browse on this site, cookies collect data to enhance your experience and personalize the content and advertising you see.
Visit our Privacy Policy to learn more. By continuing to use the site, you agree to this use of cookies and data.
  • In Hungary
  • List of Countries
  • For 7 days
  • Water Temperature
  • Satellite Maps
  • Weather Map
  • News
  • Weather Widgets
  • user-avatar
    Login

    Hourly Weather Raevo

    Today, 18 November, Sunday

    Time Temperature Precipitation Wind Pressure Humidity
    00:00 0°C° 0.3 mm 4 mps 746 mmHg 95%
    01:00 0°C° 0.3 mm 4 mps 745 mmHg 95%
    02:00 +1°C° 0 mm 3 mps 744 mmHg 96%
    03:00 +1°C° 0.4 mm 3 mps 744 mmHg 96%
    04:00 +1°C° 0.4 mm 3 mps 743 mmHg 96%
    05:00 +1°C° 0.4 mm 3 mps 743 mmHg 96%
    06:00 +1°C° 0.3 mm 3 mps 743 mmHg 96%
    07:00 +1°C° 0.3 mm 3 mps 743 mmHg 97%
    08:00 +1°C° 0.3 mm 3 mps 743 mmHg 97%
    09:00 +1°C° 0.1 mm 3 mps 744 mmHg 96%
    10:00 +1°C° 0.1 mm 3 mps 744 mmHg 96%
    11:00 +1°C° 0.1 mm 3 mps 744 mmHg 95%
    12:00 +1°C° 0.1 mm 3 mps 745 mmHg 95%
    13:00 +1°C° 0.1 mm 3 mps 745 mmHg 95%
    14:00 +2°C° 0.1 mm 2 mps 746 mmHg 95%
    15:00 +1°C° 0.1 mm 3 mps 746 mmHg 95%
    16:00 +1°C° 0.1 mm 3 mps 746 mmHg 95%
    17:00 +1°C° 0.1 mm 3 mps 747 mmHg 95%
    18:00 +1°C° 0 mm 3 mps 747 mmHg 95%
    19:00 +2°C° 0 mm 2 mps 748 mmHg 95%
    20:00 +1°C° 0 mm 2 mps 748 mmHg 96%
    21:00 +1°C° 0 mm 2 mps 749 mmHg 96%
    22:00 +1°C° 0 mm 2 mps 749 mmHg 96%
    23:00 +1°C° 0 mm 2 mps 750 mmHg 96%

    Tomorrow, 19 November, Monday

    Time Temperature Precipitation Wind Pressure Humidity
    00:00 +1°C° 0 mm 2 mps 750 mmHg 95%
    01:00 +1°C° 0 mm 2 mps 750 mmHg 95%
    02:00 +1°C° 0 mm 2 mps 751 mmHg 95%
    03:00 +1°C° 0 mm 2 mps 751 mmHg 95%
    04:00 +1°C° 0 mm 2 mps 751 mmHg 94%
    05:00 -1°C° 0 mm 2 mps 752 mmHg 94%
    06:00 -1°C° 0 mm 2 mps 752 mmHg 93%
    07:00 -1°C° 0 mm 3 mps 753 mmHg 92%
    08:00 -1°C° 0 mm 3 mps 753 mmHg 91%
    09:00 -1°C° 0 mm 2 mps 753 mmHg 90%
    10:00 -1°C° 0 mm 2 mps 754 mmHg 89%
    11:00 -1°C° 0 mm 2 mps 754 mmHg 88%
    12:00 -1°C° 0 mm 2 mps 754 mmHg 88%
    13:00 -1°C° 0 mm 2 mps 754 mmHg 88%
    14:00 -1°C° 0 mm 2 mps 755 mmHg 88%
    15:00 -2°C° 0 mm 2 mps 755 mmHg 90%
    16:00 -2°C° 0 mm 2 mps 755 mmHg 91%
    17:00 -3°C° 0 mm 2 mps 755 mmHg 93%
    18:00 -3°C° 0 mm 2 mps 755 mmHg 93%
    19:00 -3°C° 0 mm 2 mps 755 mmHg 93%
    20:00 -1°C° 0 mm 1 mps 755 mmHg 93%
    21:00 -1°C° 0 mm 1 mps 755 mmHg 93%
    22:00 -2°C° 0 mm 1 mps 755 mmHg 94%
    23:00 -2°C° 0 mm 1 mps 755 mmHg 94%

    Day after tomorrow, 20 November, Tuesday

    Time Temperature Precipitation Wind Pressure Humidity
    00:00 -2°C° 0 mm 1 mps 755 mmHg 94%
    01:00 -2°C° 0 mm 1 mps 754 mmHg 94%
    02:00 -3°C° 0 mm 0 mps 754 mmHg 94%
    03:00 -3°C° 0 mm 0 mps 754 mmHg 95%
    04:00 -4°C° 0 mm 0 mps 754 mmHg 95%
    05:00 -4°C° 0 mm 0 mps 753 mmHg 95%
    06:00 -4°C° 0 mm 0 mps 753 mmHg 95%
    07:00 -4°C° 0 mm 0 mps 753 mmHg 95%
    08:00 -4°C° 0 mm 0 mps 753 mmHg 95%
    09:00 -3°C° 0 mm 0 mps 753 mmHg 92%
    10:00 -2°C° 0 mm 1 mps 752 mmHg 90%
    11:00 -1°C° 0 mm 1 mps 752 mmHg 87%
    12:00 -1°C° 0 mm 1 mps 752 mmHg 87%
    13:00 -1°C° 0 mm 1 mps 752 mmHg 87%
    14:00 -3°C° 0 mm 2 mps 751 mmHg 87%
    15:00 -3°C° 0 mm 2 mps 751 mmHg 88%
    16:00 -4°C° 0 mm 2 mps 751 mmHg 89%
    17:00 -4°C° 0 mm 2 mps 750 mmHg 91%
    18:00 -4°C° 0 mm 2 mps 750 mmHg 90%
    19:00 -4°C° 0 mm 2 mps 750 mmHg 90%
    20:00 -4°C° 0 mm 2 mps 750 mmHg 89%
    21:00 -4°C° 0 mm 2 mps 750 mmHg 90%
    22:00 -4°C° 0 mm 2 mps 750 mmHg 90%
    23:00 -5°C° 0 mm 2 mps 750 mmHg 90%

    21 November, Wednesday

    Time Temperature Precipitation Wind Pressure Humidity
    00:00 -4°C° 0 mm 2 mps 750 mmHg 91%
    01:00 -4°C° 0 mm 2 mps 750 mmHg 91%
    02:00 -4°C° 0 mm 2 mps 750 mmHg 92%
    03:00 -4°C° 0 mm 2 mps 750 mmHg 92%
    04:00 -4°C° 0 mm 2 mps 750 mmHg 93%
    05:00 -4°C° 0 mm 2 mps 750 mmHg 93%
    06:00 -3°C° 0 mm 2 mps 750 mmHg 93%
    07:00 -3°C° 0 mm 2 mps 751 mmHg 92%
    08:00 -3°C° 0 mm 2 mps 751 mmHg 92%
    09:00 -2°C° 0 mm 2 mps 751 mmHg 90%
    10:00 -2°C° 0 mm 2 mps 751 mmHg 88%
    11:00 -2°C° 0 mm 2 mps 751 mmHg 86%
    12:00 -2°C° 0 mm 2 mps 752 mmHg 86%
    13:00 -2°C° 0 mm 2 mps 752 mmHg 86%
    14:00 -2°C° 0 mm 2 mps 752 mmHg 85%
    15:00 -2°C° 0 mm 2 mps 752 mmHg 87%
    16:00 -2°C° 0 mm 2 mps 752 mmHg 88%
    17:00 -2°C° 0 mm 2 mps 752 mmHg 89%
    18:00 -3°C° 0 mm 2 mps 752 mmHg 90%
    19:00 -3°C° 0 mm 2 mps 752 mmHg 91%
    20:00 -3°C° 0 mm 2 mps 752 mmHg 92%
    21:00 -4°C° 0 mm 2 mps 751 mmHg 92%
    22:00 -4°C° 0 mm 2 mps 751 mmHg 92%
    23:00 -4°C° 0 mm 2 mps 751 mmHg 92%

    22 November, Thursday

    Time Temperature Precipitation Wind Pressure Humidity
    00:00 -4°C° 0 mm 2 mps 751 mmHg 92%
    01:00 -4°C° 0 mm 3 mps 751 mmHg 92%
    02:00 -4°C° 0 mm 3 mps 750 mmHg 91%
    03:00 -4°C° 0 mm 3 mps 750 mmHg 90%
    04:00 -5°C° 0 mm 3 mps 750 mmHg 89%
    05:00 -5°C° 0 mm 4 mps 749 mmHg 88%
    06:00 -5°C° 0 mm 4 mps 749 mmHg 89%
    07:00 -5°C° 0 mm 4 mps 749 mmHg 89%
    08:00 -5°C° 0 mm 4 mps 748 mmHg 90%
    09:00 -5°C° 0 mm 4 mps 749 mmHg 87%
    10:00 -4°C° 0 mm 4 mps 749 mmHg 85%
    11:00 -4°C° 0 mm 4 mps 749 mmHg 83%
    12:00 -3°C° 0 mm 4 mps 749 mmHg 83%
    13:00 -2°C° 0 mm 3 mps 749 mmHg 83%
    14:00 -2°C° 0 mm 3 mps 749 mmHg 83%
    15:00 -2°C° 0 mm 3 mps 749 mmHg 84%
    16:00 -4°C° 0 mm 3 mps 749 mmHg 86%
    17:00 -4°C° 0 mm 3 mps 749 mmHg 87%
    18:00 -4°C° 0 mm 3 mps 749 mmHg 88%
    19:00 -2°C° 0 mm 2 mps 749 mmHg 89%
    20:00 -2°C° 0 mm 2 mps 750 mmHg 90%
    21:00 -2°C° 0 mm 2 mps 750 mmHg 91%
    22:00 -2°C° 0 mm 2 mps 750 mmHg 92%
    23:00 -2°C° 0 mm 2 mps 750 mmHg 93%

    23 November, Friday

    Time Temperature Precipitation Wind Pressure Humidity
    00:00 -2°C° 0 mm 2 mps 750 mmHg 94%
    01:00 -2°C° 0 mm 2 mps 750 mmHg 94%
    02:00 -2°C° 0 mm 2 mps 750 mmHg 95%
    03:00 -2°C° 0 mm 2 mps 750 mmHg 95%
    04:00 -3°C° 0 mm 2 mps 750 mmHg 95%
    05:00 -3°C° 0 mm 2 mps 750 mmHg 96%
    06:00 -3°C° 0 mm 2 mps 750 mmHg 95%
    07:00 -4°C° 0 mm 3 mps 750 mmHg 95%
    08:00 -4°C° 0 mm 3 mps 750 mmHg 95%
    09:00 -4°C° 0 mm 3 mps 749 mmHg 94%
    10:00 -2°C° 0 mm 3 mps 749 mmHg 93%
    11:00 -3°C° 0 mm 4 mps 749 mmHg 92%
    12:00 -3°C° 0 mm 4 mps 748 mmHg 90%
    13:00 -3°C° 0 mm 4 mps 748 mmHg 89%
    14:00 -3°C° 0 mm 4 mps 748 mmHg 87%
    15:00 -4°C° 0 mm 4 mps 747 mmHg 88%
    16:00 -4°C° 0 mm 4 mps 747 mmHg 88%
    17:00 -5°C° 0 mm 5 mps 746 mmHg 88%
    18:00 -5°C° 0 mm 5 mps 746 mmHg 88%
    19:00 -5°C° 0 mm 5 mps 745 mmHg 89%
    20:00 -5°C° 0 mm 5 mps 744 mmHg 89%
    21:00 -4°C° 0 mm 4 mps 744 mmHg 88%
    22:00 -4°C° 0 mm 4 mps 744 mmHg 88%
    23:00 -4°C° 0 mm 4 mps 743 mmHg 87%
    Show more